EW0408 Weather Reports


Display with metric or nautical units.
time (UTC)temp
F
wind
direction
speed
MPH
gust
MPH
rain 1hr
in
rain 24hr
in
rain mn
in
humidity
%
barometer
mb
20201204231024 69 0 0.0 0.0 0.00 0.00 0.00 87 1017.9
20201204230519 69 0 0.0 0.0 0.00 0.00 0.00 87 1018.0
20201204230021 69 212 0.0 1.0 0.00 0.00 0.00 87 1018.1
20201204225511 69 206 0.0 1.0 0.00 0.00 0.00 87 1017.9
20201204225019 69 204 0.0 2.0 0.00 0.00 0.00 87 1017.8
20201204224515 70 205 0.0 2.0 0.00 0.00 0.00 87 1017.7
20201204224018 70 205 0.0 1.0 0.00 0.00 0.00 86 1017.6
20201204223521 70 0 0.0 0.0 0.00 0.00 0.00 86 1017.5
20201204223029 70 0 0.0 0.0 0.00 0.00 0.00 86 1017.6
20201204222517 70 0 0.0 0.0 0.00 0.00 0.00 86 1017.5
20201204222016 70 0 0.0 0.0 0.00 0.00 0.00 85 1017.5
20201204221525 71 203 0.0 1.0 0.00 0.00 0.00 85 1017.4
20201204221021 71 205 0.0 1.0 0.00 0.00 0.00 85 1017.5
20201204220520 71 205 0.0 1.0 0.00 0.00 0.00 85 1017.5
20201204220031 72 203 0.0 1.0 0.00 0.00 0.00 84 1017.4
20201204215527 72 0 0.0 0.0 0.00 0.00 0.00 84 1017.6
20201204215018 72 0 0.0 0.0 0.00 0.00 0.00 83 1017.8
20201204214533 72 219 0.0 1.0 0.00 0.00 0.00 82 1017.8
20201204214017 73 205 0.0 1.0 0.00 0.00 0.00 81 1017.8
20201204213514 73 203 0.0 1.0 0.00 0.00 0.00 82 1017.6
20201204213020 73 204 0.0 1.0 0.00 0.00 0.00 79 1017.5
20201204212516 73 205 0.0 1.0 0.00 0.00 0.00 78 1017.4
20201204212014 73 0 0.0 0.0 0.00 0.00 0.00 78 1017.4
20201204211519 74 0 0.0 0.0 0.00 0.00 0.00 77 1017.6
20201204211023 74 203 0.0 1.0 0.00 0.00 0.00 77 1017.5
20201204210515 74 203 0.0 1.0 0.00 0.00 0.00 77 1017.5
20201204210033 74 205 0.0 1.0 0.00 0.00 0.00 77 1017.3
20201204205520 74 205 0.0 1.0 0.00 0.00 0.00 76 1017.3
20201204205015 74 203 0.0 1.0 0.00 0.00 0.00 76 1017.6
20201204204517 74 203 0.0 2.0 0.00 0.00 0.00 75 1017.5
20201204204022 74 203 0.0 2.0 0.00 0.00 0.00 75 1017.4
20201204203514 74 203 0.0 1.0 0.00 0.00 0.00 75 1017.5
20201204203024 74 199 0.0 2.0 0.00 0.00 0.00 75 1017.7
20201204202513 74 187 0.0 2.0 0.00 0.00 0.00 75 1017.7
20201204202021 74 166 0.0 1.0 0.00 0.00 0.00 74 1017.6
20201204201609 74 192 1.0 4.0 0.00 0.00 0.00 74 1017.6
20201204201043 74 205 1.0 4.0 0.00 0.00 0.00 73 1017.7
20201204200539 74 218 2.0 8.0 0.00 0.00 0.00 73 1017.5
20201204200016 75 217 2.0 8.0 0.00 0.00 0.00 73 1017.8
20201204195513 75 214 1.0 5.0 0.00 0.00 0.00 73 1018.0
20201204195023 75 185 0.0 1.0 0.00 0.00 0.00 75 1018.0
20201204194512 75 184 0.0 2.0 0.00 0.00 0.00 74 1018.1
20201204194011 75 183 0.0 2.0 0.00 0.00 0.00 75 1018.0
20201204193516 75 186 0.0 2.0 0.00 0.00 0.00 74 1018.0
20201204193016 75 193 0.0 2.0 0.00 0.00 0.00 73 1018.0
20201204192515 75 189 0.0 2.0 0.00 0.00 0.00 74 1018.0
20201204192030 75 196 1.0 5.0 0.00 0.00 0.00 73 1018.0
20201204191521 74 189 1.0 5.0 0.00 0.00 0.00 74 1018.0
20201204191020 74 175 1.0 5.0 0.00 0.00 0.00 73 1017.8
20201204190513 74 175 1.0 5.0 0.00 0.00 0.00 73 1017.8
20201204190016 74 152 1.0 4.0 0.00 0.00 0.00 75 1018.0
20201204185517 74 158 1.0 4.0 0.00 0.00 0.00 74 1018.1
20201204185020 74 183 1.0 3.0 0.00 0.00 0.00 73 1018.1
20201204184513 74 181 1.0 7.0 0.00 0.00 0.00 74 1018.0
20201204184011 74 186 1.0 7.0 0.00 0.00 0.00 74 1018.0
20201204183514 74 174 1.0 5.0 0.00 0.00 0.00 72 1018.1
20201204183022 74 177 2.0 8.0 0.00 0.00 0.00 72 1018.1
20201204182512 74 194 2.0 8.0 0.00 0.00 0.00 72 1018.2
20201204182021 74 209 1.0 6.0 0.00 0.00 0.00 73 1018.1
20201204181519 74 200 2.0 6.0 0.00 0.00 0.00 73 1018.1
20201204181014 75 193 2.0 4.0 0.00 0.00 0.00 73 1018.2
20201204180517 75 196 2.0 5.0 0.00 0.00 0.00 72 1018.3
20201204180022 75 178 1.0 5.0 0.00 0.00 0.00 73 1018.2
20201204175537 74 169 1.0 6.0 0.00 0.00 0.00 73 1018.4
20201204175023 74 181 1.0 6.0 0.00 0.00 0.00 75 1018.5
20201204174519 74 192 2.0 6.0 0.00 0.00 0.00 74 1018.7
20201204174020 74 183 2.0 6.0 0.00 0.00 0.00 74 1018.8
20201204173532 74 173 1.0 6.0 0.00 0.00 0.00 75 1018.9
20201204173011 74 168 1.0 4.0 0.00 0.00 0.00 75 1019.0
20201204172520 74 173 1.0 4.0 0.00 0.00 0.00 76 1019.2
20201204172012 73 189 1.0 5.0 0.00 0.00 0.00 75 1019.3
20201204171526 73 195 1.0 5.0 0.00 0.00 0.00 75 1019.5
20201204171013 73 192 1.0 5.0 0.00 0.00 0.00 78 1019.6
20201204170518 72 192 1.0 5.0 0.00 0.00 0.00 78 1019.7
20201204170037 72 211 1.0 3.0 0.00 0.00 0.00 78 1019.9
20201204165523 72 209 1.0 3.0 0.00 0.00 0.00 78 1019.9
20201204165018 71 202 1.0 3.0 0.00 0.00 0.00 78 1020.0
20201204164527 71 198 1.0 6.0 0.00 0.00 0.00 79 1020.1
20201204164020 71 203 1.0 6.0 0.00 0.00 0.00 79 1020.2
20201204163516 71 204 1.0 4.0 0.00 0.00 0.00 81 1020.3
20201204163020 70 202 1.0 4.0 0.00 0.00 0.00 81 1020.3
20201204162512 70 197 0.0 3.0 0.00 0.00 0.00 82 1020.3
20201204162018 70 160 0.0 1.0 0.00 0.00 0.00 83 1020.3
20201204161510 70 160 0.0 1.0 0.00 0.00 0.00 84 1020.5
20201204161036 70 163 1.0 4.0 0.00 0.00 0.00 85 1020.5
20201204160527 70 165 1.0 4.0 0.00 0.00 0.00 84 1020.5
20201204160031 69 191 0.0 2.0 0.00 0.00 0.00 84 1020.7
20201204155510 69 191 0.0 2.0 0.00 0.00 0.00 83 1020.7
20201204155026 69 191 0.0 1.0 0.00 0.00 0.00 83 1020.8
20201204154518 69 191 0.0 1.0 0.00 0.00 0.00 84 1020.8
20201204154028 69 191 0.0 1.0 0.00 0.00 0.00 82 1020.9
20201204153533 69 191 0.0 1.0 0.00 0.00 0.00 84 1021.0
20201204153023 68 191 0.0 2.0 0.00 0.00 0.00 83 1021.0
20201204152520 68 193 0.0 3.0 0.00 0.00 0.00 83 1021.0
20201204152030 68 199 0.0 3.0 0.00 0.00 0.00 82 1021.0
20201204151526 68 196 0.0 2.0 0.00 0.00 0.00 84 1020.9
20201204151020 67 139 0.0 2.0 0.00 0.00 0.00 85 1020.9
20201204150521 67 83 0.0 1.0 0.00 0.00 0.00 84 1021.2
20201204150011 67 78 0.0 1.0 0.00 0.00 0.00 85 1021.1
20201204145513 66 72 0.0 1.0 0.00 0.00 0.00 87 1021.0
20201204145017 66 69 1.0 3.0 0.00 0.00 0.00 86 1020.9
20201204144521 66 282 0.0 3.0 0.00 0.00 0.00 85 1021.1
20201204144017 66 254 0.0 1.0 0.00 0.00 0.00 86 1021.2
20201204143521 66 247 0.0 1.0 0.00 0.00 0.00 86 1021.0
20201204143030 66 232 0.0 1.0 0.00 0.00 0.00 87 1020.6
20201204142511 65 244 0.0 1.0 0.00 0.00 0.00 88 1020.7
20201204142022 65 249 0.0 1.0 0.00 0.00 0.00 89 1020.7
20201204141512 65 284 0.0 1.0 0.00 0.00 0.00 90 1020.6
20201204141023 65 254 0.0 1.0 0.00 0.00 0.00 89 1020.5
20201204140526 64 243 0.0 1.0 0.00 0.00 0.00 90 1020.5
20201204140024 64 240 0.0 1.0 0.00 0.00 0.00 90 1020.5
20201204135525 64 233 0.0 1.0 0.00 0.00 0.00 90 1020.5
20201204135020 64 252 0.0 1.0 0.00 0.00 0.00 90 1020.4
20201204134519 64 241 0.0 1.0 0.00 0.00 0.00 90 1020.4
20201204134016 63 240 0.0 1.0 0.00 0.00 0.00 90 1020.5
20201204133513 63 242 0.0 1.0 0.00 0.00 0.00 90 1020.4
20201204133021 63 213 0.0 2.0 0.00 0.00 0.00 89 1020.2
20201204132513 63 148 0.0 2.0 0.00 0.00 0.00 89 1020.2
20201204132022 63 163 0.0 2.0 0.00 0.00 0.00 89 1020.2
20201204131511 63 211 0.0 2.0 0.00 0.00 0.00 89 1020.2
20201204131019 63 211 0.0 2.0 0.00 0.00 0.00 90 1020.2
20201204130522 62 214 0.0 2.0 0.00 0.00 0.00 91 1020.3
20201204130023 62 216 0.0 3.0 0.00 0.00 0.00 91 1020.3
20201204125513 62 216 0.0 3.0 0.00 0.00 0.00 92 1020.2
20201204125016 62 217 0.0 1.0 0.00 0.00 0.00 93 1020.3
20201204124517 61 221 0.0 1.0 0.00 0.00 0.00 93 1020.3
20201204124020 61 218 0.0 2.0 0.00 0.00 0.00 93 1020.1
20201204123528 61 216 0.0 2.0 0.00 0.00 0.00 93 1020.1
20201204123020 61 0 0.0 0.0 0.00 0.00 0.00 94 1020.2
20201204122521 61 0 0.0 0.0 0.00 0.00 0.00 94 1020.1
20201204122023 61 0 0.0 0.0 0.00 0.00 0.00 94 1020.1
20201204121517 60 0 0.0 0.0 0.00 0.00 0.00 94 1020.3
20201204121025 60 0 0.0 0.0 0.00 0.00 0.00 94 1020.2
20201204120512 60 0 0.0 0.0 0.00 0.00 0.00 94 1020.2
20201204120024 60 0 0.0 0.0 0.00 0.00 0.00 94 1020.4
20201204115517 60 0 0.0 0.0 0.00 0.00 0.00 95 1020.3
20201204115023 60 0 0.0 0.0 0.00 0.00 0.00 94 1020.1
20201204114525 60 0 0.0 0.0 0.00 0.00 0.00 94 1020.0
20201204114020 60 0 0.0 0.0 0.00 0.00 0.00 95 1020.2
20201204113522 60 0 0.0 0.0 0.00 0.00 0.00 95 1020.2
20201204113027 60 0 0.0 0.0 0.00 0.00 0.00 95 1020.2
20201204112524 60 0 0.0 0.0 0.00 0.00 0.00 95 1020.4
20201204112019 60 0 0.0 0.0 0.00 0.00 0.00 95 1020.2
20201204111520 60 0 0.0 0.0 0.00 0.00 0.00 95 1020.2
20201204111025 59 0 0.0 0.0 0.00 0.00 0.00 96 1020.2
20201204110513 59 0 0.0 0.0 0.00 0.00 0.00 96 1020.3
20201204110022 59 0 0.0 0.0 0.00 0.00 0.00 96 1020.3
20201204105512 59 0 0.0 0.0 0.00 0.00 0.00 95 1020.4
20201204105016 59 0 0.0 0.0 0.00 0.00 0.00 95 1020.4
20201204104521 59 0 0.0 0.0 0.00 0.00 0.00 95 1020.3
20201204104019 59 0 0.0 0.0 0.00 0.00 0.00 95 1020.3
20201204103511 59 0 0.0 0.0 0.00 0.00 0.00 95 1020.4
20201204103020 59 0 0.0 0.0 0.00 0.00 0.00 95 1020.3
20201204102538 59 0 0.0 0.0 0.00 0.00 0.00 95 1020.3
20201204102029 59 0 0.0 0.0 0.00 0.00 0.00 95 1020.3
20201204101516 59 0 0.0 0.0 0.00 0.00 0.00 95 1020.4
20201204101030 59 0 0.0 0.0 0.00 0.00 0.00 96 1020.5
20201204100516 59 0 0.0 0.0 0.00 0.00 0.00 96 1020.5
20201204100026 59 0 0.0 0.0 0.00 0.00 0.00 96 1020.5
20201204095525 59 0 0.0 0.0 0.00 0.00 0.00 96 1020.5
20201204095024 58 0 0.0 0.0 0.00 0.00 0.00 97 1020.6
20201204094519 58 0 0.0 0.0 0.00 0.00 0.00 97 1020.6
20201204094019 58 0 0.0 0.0 0.00 0.00 0.00 97 1020.6
20201204093524 58 0 0.0 0.0 0.00 0.00 0.00 97 1020.6
20201204093028 58 0 0.0 0.0 0.00 0.00 0.00 96 1020.6
20201204092514 58 0 0.0 0.0 0.00 0.00 0.00 97 1020.6
20201204092020 58 0 0.0 0.0 0.00 0.00 0.00 97 1020.7
20201204091526 58 0 0.0 0.0 0.00 0.00 0.00 97 1020.7
20201204091034 58 0 0.0 0.0 0.00 0.00 0.00 97 1020.8
20201204090521 58 0 0.0 0.0 0.00 0.00 0.00 96 1020.6
20201204090027 58 0 0.0 0.0 0.00 0.00 0.00 96 1020.6
20201204085511 58 0 0.0 0.0 0.00 0.00 0.00 96 1020.6
20201204085026 58 0 0.0 0.0 0.00 0.00 0.00 96 1020.8
20201204084514 58 0 0.0 0.0 0.00 0.00 0.00 96 1020.8
20201204084010 58 0 0.0 0.0 0.00 0.00 0.00 96 1020.6
20201204083520 58 0 0.0 0.0 0.00 0.00 0.00 97 1020.7
20201204083016 58 0 0.0 0.0 0.00 0.00 0.00 97 1020.7
20201204082515 58 0 0.0 0.0 0.00 0.00 0.00 97 1020.7
20201204082023 58 0 0.0 0.0 0.00 0.00 0.00 97 1020.6
20201204081515 58 0 0.0 0.0 0.00 0.00 0.00 97 1020.6
20201204081019 58 0 0.0 0.0 0.00 0.00 0.00 97 1020.6
20201204080514 58 0 0.0 0.0 0.00 0.00 0.00 96 1020.7
20201204080012 58 0 0.0 0.0 0.00 0.00 0.00 96 1020.8
20201204075512 58 0 0.0 0.0 0.00 0.00 0.00 96 1020.8
20201204075014 58 0 0.0 0.0 0.00 0.00 0.00 97 1020.7
20201204074512 58 0 0.0 0.0 0.00 0.00 0.00 96 1020.9
20201204074012 58 0 0.0 0.0 0.00 0.00 0.00 97 1021.0
20201204073513 58 0 0.0 0.0 0.00 0.00 0.00 96 1021.1
20201204073016 58 0 0.0 0.0 0.00 0.00 0.00 96 1021.2
20201204072515 58 0 0.0 0.0 0.00 0.00 0.00 96 1021.1
20201204072018 58 0 0.0 0.0 0.00 0.00 0.00 96 1021.3
20201204071516 58 0 0.0 0.0 0.00 0.00 0.00 96 1021.1
20201204071025 58 0 0.0 0.0 0.00 0.00 0.00 96 1021.2
20201204070514 58 0 0.0 0.0 0.00 0.00 0.00 96 1021.1
20201204070018 58 0 0.0 0.0 0.00 0.00 0.00 96 1021.1
20201204065522 58 0 0.0 0.0 0.00 0.00 0.00 96 1021.1
20201204065025 58 0 0.0 0.0 0.00 0.00 0.00 95 1021.0
20201204064516 58 101 0.0 1.0 0.00 0.00 0.00 95 1021.2
20201204064010 58 101 0.0 2.0 0.00 0.00 0.00 95 1021.2
20201204063514 58 101 0.0 2.0 0.00 0.00 0.00 95 1021.1
20201204063018 59 0 0.0 0.0 0.00 0.00 0.00 95 1021.1
20201204062514 59 101 0.0 1.0 0.00 0.00 0.00 95 1021.1
20201204062016 59 101 0.0 1.0 0.00 0.00 0.00 95 1021.0
20201204061513 59 100 0.0 1.0 0.00 0.00 0.00 95 1020.9
20201204061022 59 0 0.0 0.0 0.00 0.00 0.00 95 1021.0
20201204060515 59 0 0.0 0.0 0.00 0.00 0.00 95 1021.2
20201204060032 59 101 0.0 1.0 0.00 0.00 0.00 96 1021.2
20201204055511 59 101 0.0 1.0 0.00 0.00 0.00 96 1021.1
20201204055017 59 101 0.0 2.0 0.00 0.00 0.00 96 1021.1
20201204054514 59 101 0.0 2.0 0.00 0.00 0.00 96 1021.0
20201204054019 59 0 0.0 0.0 0.00 0.00 0.00 96 1020.9
20201204053516 58 0 0.0 0.0 0.00 0.00 0.00 96 1021.1
20201204053026 58 0 0.0 0.0 0.00 0.00 0.00 95 1021.1
20201204052511 58 0 0.0 0.0 0.00 0.00 0.00 95 1021.1
20201204052021 58 0 0.0 0.0 0.00 0.00 0.00 95 1021.2
20201204051517 58 102 0.0 1.0 0.00 0.00 0.00 95 1021.3
20201204051019 58 101 0.0 1.0 0.00 0.00 0.00 95 1021.4
20201204050517 58 101 0.0 1.0 0.00 0.00 0.00 94 1021.4
20201204050023 58 102 0.0 1.0 0.00 0.00 0.00 94 1021.5
20201204045519 59 0 0.0 0.0 0.00 0.00 0.00 94 1021.4
20201204045027 59 0 0.0 0.0 0.00 0.00 0.00 93 1021.5
20201204044520 59 0 0.0 0.0 0.00 0.00 0.00 93 1021.7
20201204044019 59 0 0.0 0.0 0.00 0.00 0.00 93 1021.7
20201204043512 59 0 0.0 0.0 0.00 0.00 0.00 93 1021.7
20201204043019 59 0 0.0 0.0 0.00 0.00 0.00 92 1021.7
20201204042513 60 0 0.0 0.0 0.00 0.00 0.00 92 1021.7
20201204042016 60 0 0.0 0.0 0.00 0.00 0.00 92 1021.7
20201204041520 60 0 0.0 0.0 0.00 0.00 0.00 91 1021.8
20201204041011 60 0 0.0 0.0 0.00 0.00 0.00 91 1021.8
20201204040512 60 0 0.0 0.0 0.00 0.00 0.00 90 1022.0
20201204040018 61 0 0.0 0.0 0.00 0.00 0.00 90 1022.0
20201204035515 61 0 0.0 0.0 0.00 0.00 0.00 89 1021.8
20201204035022 61 98 1.0 3.0 0.00 0.00 0.00 89 1021.9
20201204034516 62 87 1.0 4.0 0.00 0.00 0.00 89 1021.9
20201204034017 62 83 1.0 4.0 0.00 0.00 0.00 90 1022.0
20201204033513 62 85 0.0 1.0 0.00 0.00 0.00 89 1022.1
20201204033015 62 86 0.0 1.0 0.00 0.00 0.00 89 1022.2
20201204032512 62 86 0.0 1.0 0.00 0.00 0.00 89 1021.8
20201204032021 62 86 0.0 1.0 0.00 0.00 0.00 88 1022.0
20201204031526 62 85 0.0 1.0 0.00 0.00 0.00 87 1022.0
20201204031020 63 86 0.0 3.0 0.00 0.00 0.00 87 1022.2
20201204030516 63 95 2.0 4.0 0.00 0.00 0.00 87 1022.3
20201204030029 63 95 2.0 6.0 0.00 0.00 0.00 87 1022.1
20201204025522 63 93 1.0 6.0 0.00 0.00 0.00 87 1022.2
20201204025012 63 90 1.0 4.0 0.00 0.00 0.00 87 1022.2
20201204024515 63 86 1.0 4.0 0.00 0.00 0.00 87 1022.3
20201204024016 63 77 0.0 2.0 0.00 0.00 0.00 87 1022.4
20201204023515 63 76 0.0 1.0 0.00 0.00 0.00 86 1022.5
20201204023021 63 78 0.0 3.0 0.00 0.00 0.00 86 1022.5
20201204022513 64 81 1.0 3.0 0.00 0.00 0.00 86 1022.5
20201204022011 64 81 1.0 4.0 0.00 0.00 0.00 86 1022.5
20201204021522 64 94 2.0 6.0 0.00 0.00 0.00 86 1022.4
20201204021019 64 100 4.0 8.0 0.00 0.00 0.00 87 1022.5
20201204020514 64 99 5.0 8.0 0.00 0.00 0.00 86 1022.5
20201204020020 64 96 5.0 9.0 0.00 0.00 0.00 86 1022.5
20201204015529 64 95 4.0 9.0 0.00 0.00 0.00 86 1022.5
20201204015018 64 96 3.0 6.0 0.00 0.00 0.00 86 1022.6
20201204014540 64 99 2.0 6.0 0.00 0.00 0.00 86 1022.7
20201204014021 64 99 2.0 6.0 0.00 0.00 0.00 86 1022.7
20201204013518 64 100 3.0 6.0 0.00 0.00 0.00 86 1022.7
20201204013022 64 97 4.0 7.0 0.00 0.00 0.00 86 1022.8
20201204012523 64 96 4.0 7.0 0.00 0.00 0.00 86 1022.7
20201204012022 64 99 4.0 6.0 0.00 0.00 0.00 85 1022.6
20201204011518 64 100 3.0 6.0 0.00 0.00 0.00 85 1022.6
20201204011018 64 102 2.0 6.0 0.00 0.00 0.00 85 1022.6
20201204010512 64 100 1.0 5.0 0.00 0.00 0.00 85 1022.6
20201204010034 64 98 2.0 6.0 0.00 0.00 0.00 85 1022.5
20201204005519 64 100 4.0 8.0 0.00 0.00 0.00 85 1022.6
20201204005012 64 95 6.0 9.0 0.00 0.00 0.00 85 1022.3
20201204004514 65 94 7.0 9.0 0.00 0.00 0.00 85 1022.6
20201204004020 65 93 8.0 9.0 0.00 0.00 0.00 84 1022.4
20201204003514 65 90 7.0 9.0 0.00 0.00 0.00 84 1022.4
20201204003026 65 89 7.0 8.0 0.00 0.00 0.00 85 1022.4
20201204002517 65 88 7.0 9.0 0.00 0.00 0.00 84 1022.4
20201204002029 65 88 5.0 9.0 0.00 0.00 0.00 84 1022.4
20201204001521 65 85 4.0 6.0 0.00 0.00 0.00 83 1022.5
20201204001024 65 80 4.0 7.0 0.00 0.00 0.00 83 1022.6
20201204000524 65 82 5.0 7.0 0.00 0.00 0.00 83 1022.7
20201204000019 66 85 5.0 7.0 0.00 0.00 0.00 84 1022.3
20201203235525 66 87 5.0 7.0 0.00 0.00 0.00 83 1022.4
20201203235017 66 90 5.0 8.0 0.00 0.00 0.00 83 1022.5
20201203234513 66 94 4.0 8.0 0.00 0.00 0.00 83 1022.4
20201203234016 66 98 3.0 7.0 0.00 0.00 0.00 83 1022.3
20201203233522 66 98 2.0 6.0 0.00 0.00 0.00 82 1022.1
20201203233025 66 96 2.0 4.0 0.00 0.00 0.00 82 1022.1
20201203232517 66 91 2.0 4.0 0.00 0.00 0.00 82 1022.0
20201203232021 66 87 2.0 4.0 0.00 0.00 0.00 81 1022.0
20201203231517 67 90 2.0 6.0 0.00 0.00 0.00 81 1022.0